Weather History for Crestview, FL

Change the Weather History Date:

Wednesday, January 9, 2013

  Actual Average Record
Temperature  
Mean Temperature 65 °F -  
Max Temperature 69 °F - - ()
Min Temperature 61 °F - - ()
Growing Degree Days 15 (Base 50)    
Moisture  
Dew Point 62 °F    
Average Humidity 89    
Maximum Humidity 100    
Minimum Humidity 80    
Precipitation  
Precipitation 0.00 in - - ()
Sea Level Pressure  
Sea Level Pressure 30.24 in    
Wind  
Wind Speed 6 mph (ENE)    
Max Wind Speed 9 mph    
Max Gust Speed -    
Visibility 7 miles    
Events Rain    
T = Trace of Precipitation, MM = Missing Value Source: NWS Daily Summary

Daily Weather History Graph

Daily Weather History Graph

Search for Another Location

Airport:

Trip Planner

Search our weather history database for the weather conditions in past years. The results will help you decide how hot, cold, wet, or windy it might be!

Date:

Astronomy

Jan. 09, 2013 Rise Set
Actual Time 6:44 AM CST 5:02 PM CST
Civil Twilight 6:18 AM CST 5:28 PM CST
Nautical Twilight 5:48 AM CST 5:58 PM CST
Astronomical Twilight 5:19 AM CST 6:27 PM CST
Moon 4:22 AM CST (1/9) 3:03 PM CST (1/9)
Length of Visible Light 11h 10m
Length of Day
10h 17m
Waning Crescent, 6% of the Moon is Illuminated
Jan 9
Waning Crescent
Jan 11
New
Jan 18
First Quarter
Jan 26
Full
Feb 3
Last Quarter

Hourly Weather History & Observations

Time (CST) Temp. Dew Point Humidity Pressure Visibility Wind Dir Wind Speed Gust Speed Precip Events Conditions
12:55 AM 62.2 °F 56.7 °F 82% 30.20 in 10.0 mi ENE 5.8 mph - N/A   Partly Cloudy
1:19 AM 62.6 °F 57.2 °F 82% 30.20 in 10.0 mi East 5.8 mph - N/A   Mostly Cloudy
1:45 AM 62.6 °F 57.2 °F 82% 30.20 in 10.0 mi East 5.8 mph - N/A   Overcast
1:55 AM 62.2 °F 57.2 °F 84% 30.20 in 10.0 mi East 3.5 mph - N/A   Overcast
1:56 AM 62.6 °F 57.2 °F 82% 30.20 in 10.0 mi East 4.6 mph - N/A   Overcast
2:49 AM 62.6 °F 57.2 °F 82% 30.21 in 10.0 mi Variable 4.6 mph - N/A   Overcast
2:55 AM 61.9 °F 57.7 °F 86% 30.22 in 10.0 mi East 4.6 mph - N/A   Overcast
3:47 AM 62.6 °F 59.0 °F 88% 30.22 in 10.0 mi ENE 6.9 mph - N/A   Overcast
3:55 AM 61.9 °F 58.6 °F 89% 30.22 in 10.0 mi ENE 5.8 mph - N/A   Overcast
4:42 AM 62.6 °F 59.0 °F 88% 30.22 in 10.0 mi NE 6.9 mph - N/A   Overcast
4:55 AM 61.7 °F 59.2 °F 91% 30.22 in 10.0 mi ENE 5.8 mph - N/A   Overcast
5:11 AM 62.6 °F 59.0 °F 88% 30.22 in 10.0 mi ENE 5.8 mph - N/A   Overcast
5:55 AM 62.2 °F 59.5 °F 91% 30.23 in 10.0 mi ENE 5.8 mph - N/A   Overcast
6:22 AM 62.6 °F 60.8 °F 94% 30.25 in 10.0 mi ENE 5.8 mph - N/A   Overcast
6:55 AM 62.2 °F 60.3 °F 93% 30.26 in 10.0 mi ENE 8.1 mph - N/A   Overcast
7:02 AM 62.6 °F 60.8 °F 94% 30.26 in 10.0 mi ENE 9.2 mph - N/A   Overcast
7:55 AM 62.4 °F 61.0 °F 95% 30.27 in 8.0 mi East 6.9 mph - N/A   Overcast
8:55 AM 63.1 °F 61.3 °F 94% 30.29 in 3.0 mi East 6.9 mph - N/A   Overcast
9:55 AM 64.2 °F 61.5 °F 91% 30.29 in 3.0 mi ENE 5.8 mph - N/A   Overcast
10:26 AM 64.4 °F 60.8 °F 88% 30.27 in 4.0 mi East 4.6 mph - N/A   Overcast
10:55 AM 65.7 °F 61.7 °F 87% 30.28 in 5.0 mi East 9.2 mph - N/A   Overcast
11:37 AM 66.2 °F 62.6 °F 88% 30.24 in 7.0 mi East 9.2 mph - N/A   Overcast
11:55 AM 68.0 °F 62.2 °F 82% 30.25 in 7.0 mi East 6.9 mph - N/A   Overcast
12:55 PM 68.9 °F 63.0 °F 81% 30.24 in 7.0 mi East 8.1 mph - N/A   Overcast
1:55 PM 69.4 °F 63.1 °F 80% 30.22 in 7.0 mi East 5.8 mph - N/A   Overcast
2:55 PM 69.1 °F 63.3 °F 82% 30.22 in 7.0 mi East 8.1 mph - N/A   Overcast
3:55 PM 68.5 °F 63.5 °F 84% 30.22 in 7.0 mi ENE 8.1 mph - N/A   Overcast
4:21 PM 68.0 °F 64.4 °F 88% 30.21 in 10.0 mi East 8.1 mph - N/A   Overcast
4:41 PM 68.0 °F 64.4 °F 88% 30.22 in 2.0 mi ENE 3.5 mph - N/A Rain Light Rain
4:56 PM 67.3 °F 64.4 °F 90% 30.24 in 2.0 mi East 6.9 mph - 0.00 in Rain Light Rain
5:32 PM 66.2 °F 64.4 °F 94% 30.24 in 2.0 mi ENE 3.5 mph - N/A   Overcast
5:48 PM 66.2 °F 64.4 °F 94% 30.24 in 2.0 mi East 6.9 mph - N/A Rain Light Rain
5:56 PM 66.2 °F 65.1 °F 96% 30.27 in 3.0 mi East 4.6 mph - 0.00 in   Overcast
6:55 PM 66.2 °F 65.3 °F 97% 30.27 in 2.0 mi ENE 4.6 mph - 0.00 in   Light Drizzle
7:33 PM 66.2 °F 66.2 °F 100% 30.27 in 3.0 mi ENE 5.8 mph - N/A   Overcast
7:56 PM 66.0 °F 65.1 °F 97% 30.29 in 3.0 mi East 4.6 mph - 0.00 in Rain Light Rain
8:18 PM 66.2 °F 64.4 °F 94% 30.26 in 4.0 mi East 6.9 mph - N/A   Overcast
8:55 PM 66.4 °F 64.2 °F 93% 30.28 in 5.0 mi ENE 6.9 mph - 0.00 in   Mostly Cloudy
9:20 PM 66.2 °F 64.4 °F 94% 30.27 in 5.0 mi ENE 5.8 mph - N/A Rain Light Rain
9:38 PM 66.2 °F 64.4 °F 94% 30.28 in 10.0 mi ENE 4.6 mph - N/A   Overcast
9:55 PM 66.4 °F 64.0 °F 92% 30.29 in 6.0 mi East 4.6 mph - 0.00 in   Overcast
10:55 PM 66.7 °F 64.0 °F 91% 30.29 in 10.0 mi East 5.8 mph - N/A   Overcast
11:55 PM 66.7 °F 64.6 °F 93% 30.28 in 6.0 mi East 6.9 mph - N/A   Overcast